Time,TemperatureF,DewpointF,PressureIn,WindDirection,WindDirectionDegrees,WindSpeedMPH,WindSpeedGustMPH,Humidity,HourlyPrecipIn,Conditions,Clouds,dailyrainin,SolarRadiationWatts/m^2,SoftwareType,DateUTC
2013-02-18 00:11:00,13.0,3.0,-100.00,NNE,15,2.0,6.0,65,0.00,,,0.00,0.000000,,2013-02-18 07:11:00,
2013-02-18 00:22:00,13.0,3.0,-100.00,NNE,15,2.0,6.0,65,0.00,,,0.00,0.000000,,2013-02-18 07:22:00,
2013-02-18 00:32:00,13.0,3.0,-100.00,NNE,15,2.0,6.0,65,0.00,,,0.00,0.000000,,2013-02-18 07:32:00,
2013-02-18 00:42:00,13.0,3.0,-100.00,NNE,15,2.0,6.0,65,0.00,,,0.00,0.000000,,2013-02-18 07:42:00,
2013-02-18 00:51:00,13.0,3.0,-100.00,NNE,15,2.0,6.0,65,0.00,,,0.00,0.000000,,2013-02-18 07:51:00,
2013-02-18 01:21:00,12.0,2.0,-100.00,East,98,3.0,6.0,63,0.00,,,0.00,0.000000,,2013-02-18 08:21:00,
2013-02-18 01:32:00,12.0,2.0,-100.00,East,98,3.0,6.0,63,0.00,,,0.00,0.000000,,2013-02-18 08:32:00,
2013-02-18 01:42:00,12.0,2.0,-100.00,East,98,3.0,6.0,63,0.00,,,0.00,0.000000,,2013-02-18 08:42:00,
2013-02-18 01:52:00,12.0,2.0,-100.00,East,98,3.0,6.0,63,0.00,,,0.00,0.000000,,2013-02-18 08:52:00,
2013-02-18 02:22:00,9.0,4.0,-100.00,SE,125,2.0,13.0,81,0.00,,,0.00,0.000000,,2013-02-18 09:22:00,
2013-02-18 02:32:00,9.0,4.0,-100.00,SE,125,2.0,13.0,81,0.00,,,0.00,0.000000,,2013-02-18 09:32:00,
2013-02-18 02:42:00,9.0,4.0,-100.00,SE,125,2.0,13.0,81,0.00,,,0.00,0.000000,,2013-02-18 09:42:00,
2013-02-18 02:51:00,9.0,4.0,-100.00,SE,125,2.0,13.0,81,0.00,,,0.00,0.000000,,2013-02-18 09:51:00,
2013-02-18 03:21:00,8.0,-4.0,-100.00,NW,326,4.0,14.0,58,0.00,,,0.00,0.000000,,2013-02-18 10:21:00,
2013-02-18 03:31:00,8.0,-4.0,-100.00,NW,326,4.0,14.0,58,0.00,,,0.00,0.000000,,2013-02-18 10:31:00,
2013-02-18 03:42:00,8.0,-4.0,-100.00,NW,326,4.0,14.0,58,0.00,,,0.00,0.000000,,2013-02-18 10:42:00,
2013-02-18 03:52:00,8.0,-4.0,-100.00,NW,326,4.0,14.0,58,0.00,,,0.00,0.000000,,2013-02-18 10:52:00,
2013-02-18 04:11:00,7.0,-5.0,-100.00,NE,36,4.0,20.0,56,0.00,,,0.00,0.000000,,2013-02-18 11:11:00,
2013-02-18 04:22:00,7.0,-5.0,-100.00,NE,36,4.0,20.0,56,0.00,,,0.00,0.000000,,2013-02-18 11:22:00,
2013-02-18 04:32:00,7.0,-5.0,-100.00,NE,36,4.0,20.0,56,0.00,,,0.00,0.000000,,2013-02-18 11:32:00,
2013-02-18 04:42:00,7.0,-5.0,-100.00,NE,36,4.0,20.0,56,0.00,,,0.00,0.000000,,2013-02-18 11:42:00,
2013-02-18 04:52:00,7.0,-5.0,-100.00,NE,36,4.0,20.0,56,0.00,,,0.00,0.000000,,2013-02-18 11:52:00,
2013-02-18 05:22:00,4.0,-7.0,-100.00,NW,308,1.0,12.0,59,0.00,,,0.00,0.000000,,2013-02-18 12:22:00,
2013-02-18 05:32:00,4.0,-7.0,-100.00,NW,308,1.0,12.0,59,0.00,,,0.00,0.000000,,2013-02-18 12:32:00,
2013-02-18 05:42:00,4.0,-7.0,-100.00,NW,308,1.0,12.0,59,0.00,,,0.00,0.000000,,2013-02-18 12:42:00,
2013-02-18 05:52:00,4.0,-7.0,-100.00,NW,308,1.0,12.0,59,0.00,,,0.00,0.000000,,2013-02-18 12:52:00,
2013-02-18 06:12:00,4.0,-6.0,-100.00,ESE,104,2.0,11.0,61,0.00,,,0.00,0.000000,,2013-02-18 13:12:00,
2013-02-18 06:22:00,4.0,-6.0,-100.00,ESE,104,2.0,11.0,61,0.00,,,0.00,0.000000,,2013-02-18 13:22:00,
2013-02-18 06:32:00,4.0,-6.0,-100.00,ESE,104,2.0,11.0,61,0.00,,,0.00,0.000000,,2013-02-18 13:32:00,
2013-02-18 06:42:00,4.0,-6.0,-100.00,ESE,104,2.0,11.0,61,0.00,,,0.00,0.000000,,2013-02-18 13:42:00,
2013-02-18 06:52:00,4.0,-6.0,-100.00,ESE,104,2.0,11.0,61,0.00,,,0.00,0.000000,,2013-02-18 13:52:00,
2013-02-18 07:11:00,4.0,-5.0,-100.00,WNW,283,3.0,8.0,65,0.00,,,0.00,0.000000,,2013-02-18 14:11:00,
2013-02-18 07:22:00,4.0,-5.0,-100.00,WNW,283,3.0,8.0,65,0.00,,,0.00,0.000000,,2013-02-18 14:22:00,
2013-02-18 07:33:00,4.0,-5.0,-100.00,WNW,283,3.0,8.0,65,0.00,,,0.00,0.000000,,2013-02-18 14:33:00,
2013-02-18 07:42:00,4.0,-5.0,-100.00,WNW,283,3.0,8.0,65,0.00,,,0.00,0.000000,,2013-02-18 14:42:00,
2013-02-18 07:53:00,4.0,-5.0,-100.00,WNW,283,3.0,8.0,65,0.00,,,0.00,0.000000,,2013-02-18 14:53:00,
2013-02-18 08:11:00,9.0,-5.0,-100.00,WNW,284,2.0,10.0,52,0.00,,,0.00,50.000000,,2013-02-18 15:11:00,
2013-02-18 08:22:00,9.0,-5.0,-100.00,WNW,284,2.0,10.0,52,0.00,,,0.00,50.000000,,2013-02-18 15:22:00,
2013-02-18 08:32:00,9.0,-5.0,-100.00,WNW,284,2.0,10.0,52,0.00,,,0.00,50.000000,,2013-02-18 15:32:00,
2013-02-18 08:42:00,9.0,-5.0,-100.00,WNW,284,2.0,10.0,52,0.00,,,0.00,50.000000,,2013-02-18 15:42:00,
2013-02-18 08:52:00,9.0,-5.0,-100.00,WNW,284,2.0,10.0,52,0.00,,,0.00,50.000000,,2013-02-18 15:52:00,
2013-02-18 09:12:00,16.0,-5.0,-100.00,NNE,32,4.0,10.0,39,0.00,,,0.00,273.000000,,2013-02-18 16:12:00,
2013-02-18 09:22:00,16.0,-5.0,-100.00,NNE,32,4.0,10.0,39,0.00,,,0.00,273.000000,,2013-02-18 16:22:00,
2013-02-18 09:32:00,16.0,-5.0,-100.00,NNE,32,4.0,10.0,39,0.00,,,0.00,273.000000,,2013-02-18 16:32:00,
2013-02-18 09:42:00,16.0,-5.0,-100.00,NNE,32,4.0,10.0,39,0.00,,,0.00,273.000000,,2013-02-18 16:42:00,
2013-02-18 09:52:00,16.0,-5.0,-100.00,NNE,32,4.0,10.0,39,0.00,,,0.00,273.000000,,2013-02-18 16:52:00,
2013-02-18 10:22:00,15.0,-5.0,-100.00,WNW,290,4.0,10.0,40,0.00,,,0.00,387.000000,,2013-02-18 17:22:00,
2013-02-18 10:32:00,15.0,-5.0,-100.00,WNW,290,4.0,10.0,40,0.00,,,0.00,387.000000,,2013-02-18 17:32:00,
2013-02-18 10:42:00,15.0,-5.0,-100.00,WNW,290,4.0,10.0,40,0.00,,,0.00,387.000000,,2013-02-18 17:42:00,
2013-02-18 10:52:00,15.0,-5.0,-100.00,WNW,290,4.0,10.0,40,0.00,,,0.00,387.000000,,2013-02-18 17:52:00,
2013-02-18 11:12:00,19.0,-6.0,-100.00,NW,319,5.0,16.0,32,0.00,,,0.00,560.000000,,2013-02-18 18:12:00,
2013-02-18 11:23:00,19.0,-6.0,-100.00,NW,319,5.0,16.0,32,0.00,,,0.00,560.000000,,2013-02-18 18:23:00,
2013-02-18 11:32:00,19.0,-6.0,-100.00,NW,319,5.0,16.0,32,0.00,,,0.00,560.000000,,2013-02-18 18:32:00,
2013-02-18 11:42:00,19.0,-6.0,-100.00,NW,319,5.0,16.0,32,0.00,,,0.00,560.000000,,2013-02-18 18:42:00,
2013-02-18 11:52:00,19.0,-6.0,-100.00,NW,319,5.0,16.0,32,0.00,,,0.00,560.000000,,2013-02-18 18:52:00,
2013-02-18 12:22:00,20.0,-4.0,-100.00,WSW,257,7.0,14.0,34,0.00,,,0.00,670.000000,,2013-02-18 19:22:00,
2013-02-18 12:33:00,20.0,-4.0,-100.00,WSW,257,7.0,14.0,34,0.00,,,0.00,670.000000,,2013-02-18 19:33:00,
2013-02-18 12:42:00,20.0,-4.0,-100.00,WSW,257,7.0,14.0,34,0.00,,,0.00,670.000000,,2013-02-18 19:42:00,
2013-02-18 12:52:00,20.0,-4.0,-100.00,WSW,257,7.0,14.0,34,0.00,,,0.00,670.000000,,2013-02-18 19:52:00,
2013-02-18 13:23:00,20.0,-6.0,-100.00,WSW,256,11.0,28.0,31,0.00,,,0.00,705.000000,,2013-02-18 20:23:00,
2013-02-18 13:33:00,20.0,-6.0,-100.00,WSW,256,11.0,28.0,31,0.00,,,0.00,705.000000,,2013-02-18 20:33:00,
2013-02-18 13:42:00,20.0,-6.0,-100.00,WSW,256,11.0,28.0,31,0.00,,,0.00,705.000000,,2013-02-18 20:42:00,
2013-02-18 13:52:00,20.0,-6.0,-100.00,WSW,256,11.0,28.0,31,0.00,,,0.00,705.000000,,2013-02-18 20:52:00,
2013-02-18 14:12:00,23.0,-7.0,-100.00,WNW,291,8.0,25.0,26,0.00,,,0.00,656.000000,,2013-02-18 21:12:00,
2013-02-18 14:22:00,23.0,-7.0,-100.00,WNW,291,8.0,25.0,26,0.00,,,0.00,656.000000,,2013-02-18 21:22:00,
2013-02-18 14:32:00,23.0,-7.0,-100.00,WNW,291,8.0,25.0,26,0.00,,,0.00,656.000000,,2013-02-18 21:32:00,
2013-02-18 14:42:00,23.0,-7.0,-100.00,WNW,291,8.0,25.0,26,0.00,,,0.00,656.000000,,2013-02-18 21:42:00,
2013-02-18 14:52:00,23.0,-7.0,-100.00,WNW,291,8.0,25.0,26,0.00,,,0.00,656.000000,,2013-02-18 21:52:00,
2013-02-18 15:22:00,23.0,-6.0,-100.00,NW,314,8.0,24.0,27,0.00,,,0.00,563.000000,,2013-02-18 22:22:00,
2013-02-18 15:33:00,23.0,-6.0,-100.00,NW,314,8.0,24.0,27,0.00,,,0.00,563.000000,,2013-02-18 22:33:00,
2013-02-18 15:43:00,23.0,-6.0,-100.00,NW,314,8.0,24.0,27,0.00,,,0.00,563.000000,,2013-02-18 22:43:00,
2013-02-18 15:52:00,23.0,-6.0,-100.00,NW,314,8.0,24.0,27,0.00,,,0.00,563.000000,,2013-02-18 22:52:00,
2013-02-18 16:23:00,22.0,-4.0,-100.00,NNW,336,6.0,20.0,31,0.00,,,0.00,412.000000,,2013-02-18 23:23:00,
2013-02-18 16:33:00,22.0,-4.0,-100.00,NNW,336,6.0,20.0,31,0.00,,,0.00,412.000000,,2013-02-18 23:33:00,
2013-02-18 16:52:00,22.0,-4.0,-100.00,NNW,336,6.0,20.0,31,0.00,,,0.00,412.000000,,2013-02-18 23:52:00,
2013-02-18 17:22:00,21.0,-5.0,-100.00,NE,42,4.0,14.0,31,0.00,,,0.00,244.000000,,2013-02-19 00:22:00,
2013-02-18 17:34:00,21.0,-5.0,-100.00,NE,42,4.0,14.0,31,0.00,,,0.00,244.000000,,2013-02-19 00:34:00,
2013-02-18 17:43:00,21.0,-5.0,-100.00,NE,42,4.0,14.0,31,0.00,,,0.00,244.000000,,2013-02-19 00:43:00,
2013-02-18 17:53:00,21.0,-5.0,-100.00,NE,42,4.0,14.0,31,0.00,,,0.00,244.000000,,2013-02-19 00:53:00,
2013-02-18 18:14:00,12.0,-8.0,-100.00,ENE,69,3.0,14.0,39,0.00,,,0.00,42.000000,,2013-02-19 01:14:00,
2013-02-18 18:24:00,12.0,-8.0,-100.00,ENE,69,3.0,14.0,39,0.00,,,0.00,42.000000,,2013-02-19 01:24:00,
2013-02-18 18:34:00,12.0,-8.0,-100.00,ENE,69,3.0,14.0,39,0.00,,,0.00,42.000000,,2013-02-19 01:34:00,
2013-02-18 18:53:00,12.0,-8.0,-100.00,ENE,69,3.0,14.0,39,0.00,,,0.00,42.000000,,2013-02-19 01:53:00,
2013-02-18 19:14:00,11.0,-10.0,-100.00,NE,38,3.0,12.0,37,0.00,,,0.00,0.000000,,2013-02-19 02:14:00,
2013-02-18 19:23:00,11.0,-10.0,-100.00,NE,38,3.0,12.0,37,0.00,,,0.00,0.000000,,2013-02-19 02:23:00,
2013-02-18 19:34:00,11.0,-10.0,-100.00,NE,38,3.0,12.0,37,0.00,,,0.00,0.000000,,2013-02-19 02:34:00,
2013-02-18 19:42:00,11.0,-10.0,-100.00,NE,38,3.0,12.0,37,0.00,,,0.00,0.000000,,2013-02-19 02:42:00,
2013-02-18 19:53:00,11.0,-10.0,-100.00,NE,38,3.0,12.0,37,0.00,,,0.00,0.000000,,2013-02-19 02:53:00,
2013-02-18 20:24:00,10.0,-11.0,-100.00,SE,131,3.0,9.0,37,0.00,,,0.00,0.000000,,2013-02-19 03:24:00,
2013-02-18 20:34:00,10.0,-11.0,-100.00,SE,131,3.0,9.0,37,0.00,,,0.00,0.000000,,2013-02-19 03:34:00,
2013-02-18 20:44:00,10.0,-11.0,-100.00,SE,131,3.0,9.0,37,0.00,,,0.00,0.000000,,2013-02-19 03:44:00,
2013-02-18 20:53:00,10.0,-11.0,-100.00,SE,131,3.0,9.0,37,0.00,,,0.00,0.000000,,2013-02-19 03:53:00,
2013-02-18 21:23:00,9.0,-12.0,-100.00,North,355,1.0,6.0,36,0.00,,,0.00,0.000000,,2013-02-19 04:23:00,
2013-02-18 21:33:00,9.0,-12.0,-100.00,North,355,1.0,6.0,36,0.00,,,0.00,0.000000,,2013-02-19 04:33:00,
2013-02-18 21:43:00,9.0,-12.0,-100.00,North,355,1.0,6.0,36,0.00,,,0.00,0.000000,,2013-02-19 04:43:00,
2013-02-18 21:52:00,9.0,-12.0,-100.00,North,355,1.0,6.0,36,0.00,,,0.00,0.000000,,2013-02-19 04:52:00,
2013-02-18 22:22:00,10.0,-13.0,-100.00,South,175,4.0,7.0,33,0.00,,,0.00,0.000000,,2013-02-19 05:22:00,
2013-02-18 22:32:00,10.0,-13.0,-100.00,South,175,4.0,7.0,33,0.00,,,0.00,0.000000,,2013-02-19 05:32:00,
2013-02-18 22:43:00,10.0,-13.0,-100.00,South,175,4.0,7.0,33,0.00,,,0.00,0.000000,,2013-02-19 05:43:00,
2013-02-18 22:52:00,10.0,-13.0,-100.00,South,175,4.0,7.0,33,0.00,,,0.00,0.000000,,2013-02-19 05:52:00,
2013-02-18 23:12:00,10.0,-13.0,-100.00,South,182,3.0,6.0,33,0.00,,,0.00,0.000000,,2013-02-19 06:12:00,
2013-02-18 23:22:00,10.0,-13.0,-100.00,South,182,3.0,6.0,33,0.00,,,0.00,0.000000,,2013-02-19 06:22:00,
2013-02-18 23:32:00,10.0,-13.0,-100.00,South,182,3.0,6.0,33,0.00,,,0.00,0.000000,,2013-02-19 06:32:00,
2013-02-18 23:42:00,10.0,-13.0,-100.00,South,182,3.0,6.0,33,0.00,,,0.00,0.000000,,2013-02-19 06:42:00,
2013-02-18 23:52:00,10.0,-13.0,-100.00,South,182,3.0,6.0,33,0.00,,,0.00,0.000000,,2013-02-19 06:52:00,